Velovelo
Português Nederlands 日本語 中文
Español English čeština slovenčina
русский italiano polski norsk
français Deutsch svenska عربي
 
 الصفحة السابقة
 أرسل إلى صديقك
 طباعة التقرير
 ---> Etape du Tour 2 - 2012 : du 1001ème au 2000ème

Voir notre -> Grand reportage photos de l’Acte 1

Cl...Dos.NomPrénomCat.C.cTemps..Montées
1001 1926 GARCIA Maxime B 300 9:13:54 4:13:24
1002 2166 HOUDIN Jean-Luc C 409 9:13:56 4:29:37
1003 9550 LAGARDE Jeremy B 301 9:14:02 4:10:50
1004 2540 GUYONNET Pascla C 410 9:14:10 4:18:38
1005 722 COYER Sylvain E 27 9:14:14 4:23:52
1006 2874 TREVISAN Cedric B 302 9:14:17 4:22:46
1007 349 GATLAND Nick C 411 9:14:21 4:35:05
1008 2181 GRIETTE Christophe B 303 9:14:23 4:11:37
1009 3240 COLLINS Garrett B 304 9:14:27 4:09:17
1010 4483 DUVAL Thomas A 96 9:14:31 4:21:22
1011 847 STOUFFLET Laurent C 412 9:14:34 4:36:17
1012 5932 BLANC Sebastien B 305 9:14:47 4:16:14
1013 6536 CASSWELL Andrew C 413 9:14:49 4:14:34
1014 3859 CUCHEVAL Bernard D 165 9:14:50 4:32:43
1015 221 RERAT Bruno D 166 9:14:51 4:32:40
1016 2604 FREUNDT Reinhard D 167 9:14:57 4:29:44
1017 5820 KIMBER Nigel D 168 9:14:59 4:08:23
1018 9473 GIL BELTRAN Alfonso D 169 9:15:03 4:21:56
1019 4049 DAVEY Neil B 306 9:15:04 4:22:27
1020 5793 TURCOTTE Pierre D 170 9:15:07 4:17:59
1021 8754 OLSSON Christian B 307 9:15:11 4:24:26
1022 924 ROUSSELET Mélanie F 6 9:15:15 4:23:00
1023 6592 SQUIRE Robert C 414 9:15:21 4:18:19
1024 3832 PERES Hely C 415 9:15:25 4:31:07
1025 3186 JONATHAN Feldman A 97 9:15:28 4:17:24
1026 8285 LAPIN Andrew A 98 9:15:33 4:24:47
1027 2215 ROBIN David C 416 9:15:33 4:17:54
1028 5849 GIBOULOT Sébastien C 417 9:15:43 4:31:10
1029 150 BAYENS Vincent C 418 9:15:46 4:29:59
1030 5075 GIRAUDBIT Guillaume C 419 9:15:46 4:03:54
1031 2125 BEILLARD Lionel D 171 9:15:53 4:29:48
1032 2527 LUQUET Michel C 420 9:15:54 4:19:06
1033 170 DELAS Jean-Michel C 421 9:15:54 4:24:50
1034 3794 TALLANT Daniel E 28 9:15:59 4:26:21
1035 5944 HEINEMANN Christian B 308 9:15:59 4:10:47
1036 3428 GUILHOT Paul D 172 9:16:02 4:24:11
1037 9553 WONG Jeffrey C 422 9:16:04 4:17:53
1038 3514 LEACH Andrew C 423 9:16:06 4:01:20
1039 3327 PICHON Laurent C 424 9:16:07 4:23:14
1040 9649 PEYROUTON Thomas A 99 9:16:08 4:24:13
1041 8832 STEVENSON Oscar C 425 9:16:15 4:12:16
1042 2810 DELZON Claude E 29 9:16:26 4:09:40
1043 2699 BOISSY Michel C 426 9:16:46 4:14:21
1044 3171 DEWEIN Patrick C 427 9:16:54 4:10:05
1045 2610 BOISMARTEL Jérôme B 309 9:17:05 4:27:42
1046 2264 JOHNSON Richard A 100 9:17:13 4:33:19
1047 3942 COULTON Pete C 428 9:17:14 4:17:53
1048 2839 HOURCADE Yves D 173 9:17:15 4:30:10
1049 2668 JEAN DIT PANNEL William E 30 9:17:16 4:25:56
1050 8488 DEGAUQUE Pascal C 429 9:17:24 4:21:57
1051 2761 COLLIN Philippe B 310 9:17:26 4:25:02
1052 387 TOLLENDAL Claudia G 4 9:17:28 4:25:48
1053 878 DEBONNAIRE Xavier C 430 9:17:34 4:07:38
1054 1258 POIROU Sylveres D 174 9:17:38 4:20:06
1055 2038 TAUNAY Franck C 431 9:17:38 4:37:52
1056 821 LAMY Thierry C 432 9:17:40 4:17:29
1057 2129 LEVTCHENKO Michel E 31 9:17:41 4:32:35
1058 1418 GAVROY Christophe C 433 9:17:46 4:27:10
1059 8351 WARD David C 434 9:17:47 4:03:27
1060 1952 BLAND Christopher C 435 9:17:49 4:32:33
1061 3796 BISOTTO Jean-Laurent C 436 9:17:59 4:12:58
1062 2602 CRON Christophe D 175 9:18:04 4:21:45
1063 1479 TRICAN Romain B 311 9:18:05 4:10:25
1064 2005 JOHNSON Colin C 437 9:18:09 4:14:46
1065 1431 BIGUE PERRY Christophe C 438 9:18:14 4:22:36
1066 1580 PITCHFORD Alan E 32 9:18:20 4:17:09
1067 1889 SEGURA Bruno D 176 9:18:23 4:31:27
1068 1884 BREMNER Alastair C 439 9:18:28 4:11:06
1069 721 DENIVELLE Alain E 33 9:18:32 4:27:21
1070 8954 SARUBBI Alexandre B 312 9:18:32 4:20:00
1071 2076 GUILLOT Thomas C 440 9:18:33 4:38:39
1072 8331 FREER Scott C 441 9:18:35 4:24:42
1073 5366 FISCHBACH Laurent A 101 9:18:41 4:06:53
1074 5101 NOVIANT Jerome C 442 9:18:46 4:28:14
1075 3357 JACOB Bruno D 177 9:18:47 4:29:32
1076 359 GRAS Marc B 313 9:18:54 3:52:45
1077 1363 HEGRON Fabrice C 443 9:19:00 4:25:14
1078 8459 DOS SANTOS Marc B 314 9:19:01 4:15:19
1079 1622 BAGILET Christian D 178 9:19:05 4:21:45
1080 5002 LE GUER Yves C 444 9:19:23 4:21:57
1081 2177 ENJALBERT Bernard E 34 9:19:26 4:10:49
1082 5051 LACOSTE Jean Luc D 179 9:19:34 4:29:00
1083 1600 BROCHON Cyril B 315 9:19:37 4:29:48
1084 2091 AUSSAT Christian D 180 9:19:46 4:38:12
1085 3483 LECLERE Jean-Christophe C 445 9:20:01 4:09:23
1086 4089 NAESSENS Timothy C 446 9:20:01 4:04:41
1087 813 VIANA Carlos Alberto D 181 9:20:15 4:05:27
1088 7829 CLARK Oliver B 316 9:20:15 4:19:00
1089 684 THOUVENOT Jean-Luc D 182 9:20:17 4:34:18
1090 2657 POPE Adrian C 447 9:20:32 4:28:52
1091 8216 RICHARDSON Michael B 317 9:20:35 4:13:21
1092 3846 SAENZ DE MIERA Bruno A 102 9:20:38 4:36:30
1093 2075 PRAT Benoit Boris B 318 9:20:38 4:27:49
1094 2148 MASSOL André D 183 9:20:40 4:18:28
1095 1501 LEMOSY Claude D 184 9:20:41 4:30:38
1096 3278 SINGER Jason C 448 9:20:45 4:20:46
1097 7880 PURCELL Ben C 449 9:20:51 4:24:55
1098 804 BELOT Olivier B 319 9:20:54 4:27:31
1099 938 FAURE Jean Philippe C 450 9:20:55 4:22:41
1100 951 MONJALET Laurent B 320 9:20:56 4:08:35
1101 4498 GRASSAUD Joel D 185 9:20:57 4:17:01
1102 1331 PARCELLIER Didier C 451 9:20:59 4:33:44
1103 1310 VOUILLAT Eric D 186 9:21:04 4:29:11
1104 2568 IGARASHI Kazuyoshi C 452 9:21:05 4:12:01
1105 1504 FONTAINE Patrick D 187 9:21:09 4:19:34
1106 9595 GREGORY Andrew D 188 9:21:15 4:07:23
1107 2773 MUSSARD Joel Thierry C 453 9:21:16 4:17:28
1108 8979 VERNIS Franck B 321 9:21:17 3:58:58
1109 4732 MILLER Gretchen G 5 9:21:18 4:24:17
1110 2119 DELVITTO Yvan D 189 9:21:19 4:14:56
1111 2199 REDONNET Patrick D 190 9:21:22 4:18:08
1112 8877 PAYNE Nicholas B 322 9:21:25 4:23:09
1113 3805 KAVANAGH Pentti C 454 9:21:28 4:19:03
1114 1413 NORRIS Richard B 323 9:21:29 4:16:06
1115 5952 FAURÉ Patrick D 191 9:21:31 4:30:19
1116 1267 BARRES Christian E 35 9:21:33 4:35:21
1117 5175 DIEGO Armenteros Moreno D 192 9:21:35 4:21:49
1118 8296 WHITE James B 324 9:21:37 4:05:03
1119 329 HALLIDAY Kirsten F 7 9:21:40 4:01:39
1120 5047 GRENAPIN Thomas B 325 9:21:49 4:28:46
1121 2560 JENKINS Mark C 455 9:21:52 4:25:56
1122 1876 DENIS Pas D 193 9:21:52 4:37:24
1123 4123 CARLO Russo D 194 9:21:55 4:14:36
1124 2765 RENAULT Thierry C 456 9:21:56 4:30:08
1125 8857 BODIN Loic D 195 9:22:07 4:30:10
1126 2029 SOLIGNAC Alain - Lucien D 196 9:22:09 4:40:36
1127 287 BONZON Michel C 457 9:22:10 4:23:49
1128 1531 MARPAUX Michel E 36 9:22:28 4:26:55
1129 6467 LEDWARD David C 458 9:22:29
1130 5336 LE GALLO Kevin B 326 9:22:32 4:16:50
1131 9007 PENNEC Christian C 459 9:22:36 4:16:27
1132 2566 DUBREUIL Yannick C 460 9:22:45 4:20:45
1133 4422 MILLEROU Laurent B 327 9:22:50 4:33:23
1134 7094 BAKER Andrew C 461 9:22:54 4:07:36
1135 3414 ANDRADA Remy C 462 9:22:55 4:37:49
1136 3128 DENIAUD Frederic B 328 9:23:00 4:30:25
1137 9621 CUNNINGHAM Ian C 463 9:23:01 4:36:51
1138 5190 ETCHEVERRY Nicolas A 103 9:23:03 4:08:50
1139 8998 KENNEDY Gary C 464 9:23:08 4:06:31
1140 4442 JUNCA-LAPLACE Marc D 197 9:23:23 4:11:32
1141 2080 BARAS Francois C 465 9:23:23 4:29:04
1142 3401 ADENOT Laurent B 329 9:23:26 4:44:07
1143 2667 SCOTT Xavier A 104 9:23:32
1144 798 BACMANN Jean-François C 466 9:23:32 4:21:20
1145 7657 BLANC Frederic B 330 9:23:34 4:40:18
1146 8927 STEELE Jacob B 331 9:23:34 4:01:26
1147 5018 SINGLANDE Eric C 467 9:23:38 4:22:53
1148 2210 MONEDIERE Denis D 198 9:23:40 4:18:39
1149 4481 LIMOZIN Eric B 332 9:23:42 4:16:00
1150 6253 ROS PIIQUERAS Angel B 333 9:23:55 4:31:09
1151 2774 MORALES Lorenzo C 468 9:23:58 4:30:25
1152 3809 TOSCAN Raphael B 334 9:24:01 4:26:40
1153 9002 COOP James A 105 9:24:06 4:23:50
1154 2850 VERNIMMEN Robert C 469 9:24:17 4:24:38
1155 1290 ROULOT Glenn B 335 9:24:24 4:38:28
1156 1440 DONNELLY Kieran C 470 9:24:26 4:05:58
1157 8288 PEARSON Toby C 471 9:24:27 4:05:34
1158 3383 SITNIKOV Nikolai A 106 9:24:30 4:14:08
1159 871 MUNTONI Daniel C 472 9:24:30 4:09:30
1160 4385 MANDIN Philippe C 473 9:24:32 4:26:38
1161 4419 CHAMBERS John C 474 9:24:33 4:29:04
1162 2082 LECLAIRE Jeany C 475 9:24:36 4:34:38
1163 738 CARSAC Michel D 199 9:24:50 4:38:07
1164 5998 JESSOP Ed C 476 9:24:51 4:17:02
1165 2664 MURRAY Cameron B 336 9:24:52 4:17:04
1166 8444 NADON Jean-Christophe C 477 9:24:54 4:33:12
1167 8867 BLAIRON Sylvain B 337 9:25:02 4:16:23
1168 1513 BLOWFIELD Robert D 200 9:25:04 4:26:43
1169 8186 MARTIMORT Jerome A 107 9:25:04 4:12:23
1170 1617 GILLET Christophe B 338 9:25:07 4:39:27
1171 2517 TREMOLIERES Marc C 478 9:25:07 4:11:02
1172 2191 ANDOLFI Jean-Philippe C 479 9:25:08 4:32:59
1173 2239 TACHON Jacky D 201 9:25:08 4:19:54
1174 2095 SCATTOLON Laurent C 480 9:25:09 4:34:12
1175 2097 TRIDON Sébastien C 481 9:25:10 4:16:29
1176 5788 LEGENNE Laurent C 482 9:25:11 4:37:44
1177 7632 SEWARD Ross A 108 9:25:12 4:35:15
1178 809 GIRAUDEL Jean-Michel E 37 9:25:12 4:39:24
1179 2605 MURGUET Robert D 202 9:25:18 4:35:14
1180 3172 PEREZ Robert C 483 9:25:21 4:29:03
1181 5099 ALLEGRETTI Ludovic C 484 9:25:22 4:23:03
1182 1347 HARTMANN Michel E 38 9:25:22 4:25:15
1183 2032 CANCE André D 203 9:25:23 4:30:15
1184 9641 PIOTTE Tristan C 485 9:25:24 4:30:53
1185 2069 PYM Nick D 204 9:25:32 4:34:05
1186 2621 EVANS Michael D 205 9:25:32 4:28:15
1187 3788 BOER Patrice C 486 9:25:32 4:33:23
1188 3842 GIEUSSE Serge C 487 9:25:40 4:26:00
1189 2779 JACQUIN Alexandre C 488 9:25:42 4:40:15
1190 1284 ESCAICH Genevieve G 6 9:25:44 4:48:46
1191 2675 NEYRIAL Alain E 39 9:25:45 4:27:17
1192 2650 DERAED Frédéric C 489 9:25:45 4:17:49
1193 4020 GUÉNO Jean-Yves C 490 9:25:49 4:15:31
1194 3908 CAPDEBOSCQ Raymond D 206 9:25:57 4:26:40
1195 1499 DAGOMMER Dominique D 207 9:25:58 4:37:16
1196 5848 RIVERIE Patrick C 491 9:26:00 4:08:59
1197 7559 PAGNON Patrick E 40 9:26:03 4:28:52
1198 872 BENÉTEAU Damien B 339 9:26:05
1199 4715 COLOMBIE Francis D 208 9:26:11 4:30:40
1200 3913 GONZALEZ Vincent B 340 9:26:16 4:31:09
1201 2196 ROQUES Olivier B 341 9:26:16 4:25:36
1202 176 MARTY Philippe C 492 9:26:24 4:30:56
1203 2514 LETOURNEUR Patrick D 209 9:26:27 4:14:48
1204 9107 CUNNANE Eanna B 342 9:26:28 4:17:15
1205 3867 MARTAIL Alain D 210 9:26:32 4:15:10
1206 6250 COLLINS Russell C 493 9:26:33 4:17:07
1207 9597 BROSSIER Yvonnick C 494 9:26:33 4:21:21
1208 4430 MUNDUTEGUY Thomas A 109 9:26:43 4:29:18
1209 2556 BERTRAND Raphael B 343 9:26:44 4:17:04
1210 5358 HORD Glenn C 495 9:27:08 4:13:25
1211 4022 AIROUCHE Lahlou D 211 9:27:18 4:42:11
1212 4453 SENAC Romain A 110 9:27:19 4:37:03
1213 8797 CASTLE Richard C 496 9:27:19 4:24:18
1214 3450 AVRIL Sylvain B 344 9:27:23 4:28:12
1215 3858 BERBIE Francois E 41 9:27:26 4:30:29
1216 3405 MOMBET Jean-François C 497 9:27:31 4:33:04
1217 2237 TISON Stéphane C 498 9:27:31 4:19:17
1218 7779 CASTELLANI Christophe C 499 9:27:31 4:33:41
1219 8209 GURNEY Henry B 345 9:27:33 4:32:09
1220 7522 RICHARDSON Oisin C 500 9:27:36 4:00:55
1221 3443 BOUVELLE Julien A 111 9:27:40 4:23:46
1222 4375 PHILIPPOT Olivier C 501 9:27:42 4:24:57
1223 3457 NAY Philippe C 502 9:27:46 4:31:25
1224 655 CHAMBEFORT Cedric A 112 9:27:54 4:48:47
1225 9072 ANEZO Richard C 503 9:27:59 4:14:15
1226 1359 BONET Jacques C 504 9:28:01 4:41:30
1227 5341 EDWARDS Matthew C 505 9:28:03 4:18:56
1228 7634 WILSON Gregory A 113 9:28:07 4:28:41
1229 4412 JEWSON Gerry D 212 9:28:19 4:33:16
1230 4623 LUQUE Jean Michel C 506 9:28:32 4:25:45
1231 7203 SCARAZINI Lorenzo C 507 9:28:37 4:22:55
1232 2824 ESCRIBE Roland D 213 9:28:40 4:18:43
1233 7038 BREDEMEAR Zachary C 508 9:28:42 4:10:06
1234 2124 PENOT Christian C 509 9:28:43 4:36:01
1235 3986 MEVEL Jean-Marc C 510 9:28:47 4:36:01
1236 4675 BASSAT Pierre D 214 9:28:49 4:15:03
1237 8501 HARROD Mark C 511 9:28:50 4:32:20
1238 1574 FILHOL Gilles D 215 9:28:56 4:36:59
1239 665 GRÉGOIRE Philippe C 512 9:29:00 4:45:39
1240 2697 AVERY Vince D 216 9:29:01 4:33:01
1241 3830 LE PRIOL Hubert D 217 9:29:04 4:28:03
1242 9681 BARRY Stephen B 346 9:29:05 4:09:31
1243 1340 MORLON Pierre C 513 9:29:06 4:19:01
1244 5794 CHAMPAGNE Maryse F 8 9:29:11 4:28:46
1245 3900 SAMAILLE Benoit D 218 9:29:12 4:36:28
1246 1883 CORDIER Michel D 219 9:29:17 4:36:31
1247 2068 SHALE Lee D 220 9:29:17 4:02:47
1248 2713 KRASA Patrick C 514 9:29:22 4:32:42
1249 4584 TOHER Jarlath C 515 9:29:25 4:32:28
1250 4470 MINVIELLE Noêl E 42 9:29:28 4:35:56
1251 3130 CADIOT Lionel C 516 9:29:31 4:29:56
1252 1534 DASTUGUE Jean Pierre D 221 9:29:33 4:30:08
1253 313 PIERRIN Patrice C 517 9:29:36 4:32:59
1254 8165 LINDEN Cox C 518 9:29:38 4:21:21
1255 2600 CHANTEUR Jose C 519 9:29:50 4:38:30
1256 9705 COLLINS Evan A 114 9:29:51 4:02:59
1257 9077 MAGEE Colin B 347 9:29:51 4:36:02
1258 1306 BELL Graham C 520 9:30:00 4:42:18
1259 2515 WILLIAMS Sean C 521 9:30:00 4:37:20
1260 3780 PRADAYROL Sebastien B 348 9:30:06 4:19:22
1261 4654 SEGUE François D 222 9:30:10 4:27:39
1262 6922 ELLIS Darren C 522 9:30:25 4:07:49
1263 2589 PERSAULT Joel E 43 9:30:26 4:27:42
1264 6978 KANNENGIEßER Philipp B 349 9:30:30 4:23:21
1265 6602 JACOB Durant A 115 9:30:39 3:57:54
1266 1978 GAERTNER Théophile A 116 9:30:40 4:26:56
1267 5140 ALLEN Colin D 223 9:30:40 4:20:10
1268 3348 MOLLER Dick C 523 9:30:41 4:12:43
1269 377 LOUSTEAU Philippe C 524 9:30:43 4:47:31
1270 3907 RIVET Pascal D 224 9:30:49 4:18:01
1271 3961 SINGLA Frédéric C 525 9:30:54 4:13:15
1272 3930 GUERIT Pascal D 225 9:31:06 4:29:53
1273 2768 TAILLEFER Gérald E 44 9:31:06 4:40:14
1274 2843 DIAS FURTADO Anselmo B 350 9:31:11 4:12:48
1275 7126 ROSS Leslie B 351 9:31:12 4:16:00
1276 1621 LECOMTE Aubin B 352 9:31:13 4:31:59
1277 648 MCSHARRY Peta G 7 9:31:13 4:39:45
1278 8933 ABEILLÉ Patrick A 117 9:31:15 4:44:54
1279 7633 MCGURK Carl D 226 9:31:16 4:37:50
1280 6611 WALLIS Steve B 353 9:31:19 4:03:05
1281 3856 TIGÉ Régis C 526 9:31:19 4:23:20
1282 3999 MOREAU Valentin A 118 9:31:28 4:14:12
1283 4636 FLOODGATE Paul B 354 9:31:29 4:14:13
1284 5743 ROWAN Gray B 355 9:31:35 4:14:42
1285 3246 ARD Jonny C 527 9:31:35 4:30:23
1286 2503 CUADRADO Eric C 528 9:31:35 4:40:22
1287 1256 WILTSHIRE Elizabeth F 9 9:31:39 4:25:35
1288 9005 DAUBAS David C 529 9:31:39 4:24:37
1289 1377 PAGNOUX Dider D 227 9:31:39 4:22:11
1290 7653 GENOVESIO Lionel C 530 9:31:41 4:41:02
1291 4635 ABRAHAM Dean C 531 9:31:43 4:15:57
1292 752 KNELL-MOORE Richard B 356 9:31:43 4:26:38
1293 4404 DURAND Matthias A 119 9:31:45 4:35:59
1294 3991 ROUX Didier C 532 9:31:48 4:25:04
1295 705 MILLER Jason C 533 9:31:49 4:29:15
1296 8887 LAILHEUGUE Denis C 534 9:31:50 4:15:47
1297 4514 DEANER Andrew C 535 9:31:55 4:16:23
1298 2691 MARSOLLIER Bruno D 228 9:31:57 4:37:43
1299 3399 BOUZAT Vidian B 357 9:32:03 4:28:48
1300 3503 SACCHI Germano C 536 9:32:11 4:30:13
1301 7722 RODRIGUEZ Paris D 229 9:32:11 4:18:51
1302 233 NEGRIER Patrice C 537 9:32:11 4:20:23
1303 2783 RACODON Jean Paul E 45 9:32:14 4:27:53
1304 2214 LACOMBE Francis E 46 9:32:17 4:30:24
1305 1956 GOUMARD Francis D 230 9:32:19 4:34:20
1306 4072 FOWERAKER Shaun C 538 9:32:29 4:27:55
1307 4520 COUSIN Michel D 231 9:32:31 4:19:02
1308 9704 COLLINS Aaron A 120 9:32:32 4:00:48
1309 2523 SZAMROWSKI Piotr B 358 9:32:38 4:06:51
1310 4716 LAVANDIER Bruno D 232 9:32:39 4:18:15
1311 5258 PERKINS Andrew C 539 9:32:43 3:40:42
1312 5905 THOMAS Andrew B 359 9:32:46 3:50:48
1313 6258 BERRY Andrew C 540 9:32:55 4:09:46
1314 4515 LALANNE Stéphane B 360 9:32:59 4:20:13
1315 5056 LATAPIE Pascal D 233 9:33:02 4:30:02
1316 2518 CIBAT Guy D 234 9:33:06 4:44:05
1317 9406 HALVORSON Bruce D 235 9:33:07 4:04:29
1318 1930 BARDIN Jean-Luc C 541 9:33:18 4:31:12
1319 3939 HIRIBARREN Dominique C 542 9:33:25 4:38:28
1320 3356 CHAPMAN Thomas B 361 9:33:30 4:18:45
1321 2079 DOBIE Paul C 543 9:33:31 4:21:55
1322 2078 PELLEREAU Olivier C 544 9:33:31 4:39:45
1323 4024 ONILLON Luc C 545 9:33:32 4:17:27
1324 5907 FOURE Maxime A 121 9:33:34 4:19:19
1325 5025 SAINT-MEZARD Jean-Christophe B 362 9:33:37 4:25:06
1326 3761 FINN Adam D 236 9:33:44 4:21:25
1327 1358 AROMATARIO Christophe C 546 9:33:50 4:22:11
1328 5955 MONNIER Serge D 237 9:33:50 4:36:01
1329 5098 BRAUD Joel D 238 9:33:52 4:33:13
1330 735 SLACK Jefferson C 547 9:34:01 4:37:50
1331 8177 MORGAN Rhodri C 548 9:34:04 4:10:44
1332 2599 BOURGOUIN Philippe D 239 9:34:09 4:43:10
1333 6986 ROBILLARD Matthieu A 122 9:34:17 4:28:32
1334 2643 HAURAT André C 549 9:34:19 4:24:41
1335 1899 RUFFIE Jean D 240 9:34:20 4:31:55
1336 6588 BRAZON Michel C 550 9:34:25 4:26:32
1337 3468 GRANGER Yann D 241 9:34:26 4:20:02
1338 6307 MARGUIN Eric A 123 9:34:30 4:16:14
1339 5979 CHIARELLI Christophe B 363 9:34:41 4:14:57
1340 5189 GUIGNARD Nicolas B 364 9:34:44 4:36:05
1341 202 PIVERT Jerome B 365 9:34:50 3:48:58
1342 7218 MARSHALL Trevor D 242 9:34:51 4:23:05
1343 9017 JEANNE Gregory B 366 9:34:54 4:03:03
1344 1908 MOREAU Erick C 551 9:34:54 4:25:24
1345 4103 ELDRED Nick C 552 9:34:55 4:20:09
1346 7621 LEWIN David D 243 9:34:57 4:27:03
1347 4577 JACKSON Stephen D 244 9:35:08 4:31:33
1348 3933 NOGUES Yves D 245 9:35:09 4:34:04
1349 819 ISABEL Jean-François C 553 9:35:13 4:43:16
1350 2056 NICOLL Simon C 554 9:35:19 4:52:59
1351 1917 ROBIN Philippe C 555 9:35:34 4:25:48
1352 8807 EDMONDSON Hugh B 367 9:35:36 4:31:00
1353 262 MERIC Alexandre C 556 9:35:42 4:21:51
1354 8242 CLARK Terry D 246 9:35:49 4:25:38
1355 7742 JOSE RAMON HERRERO SANCHEZ Jose Ramon D 247 9:35:51 4:18:19
1356 3938 MILES Christian C 557 9:35:52 4:18:49
1357 8386 PASCIULLO Berto C 558 9:35:52 4:12:09
1358 7548 DUBOST Franck C 559 9:35:54 4:16:11
1359 4542 HUME Alister C 560 9:35:56 4:06:31
1360 8276 MICHAEL Lund C 561 9:35:59
1361 2033 LASSERRE Daniel E 47 9:35:59
1362 374 ELDUAYEN Ramuntcho E 48 9:36:00 4:22:02
1363 3993 CONDE Jean Michel C 562 9:36:12 4:14:32
1364 2741 GILBERT William B 368 9:36:13 4:22:24
1365 2245 POTTIER Jacques E 49 9:36:13 4:34:21
1366 2784 DE MENEZES Eric D 248 9:36:13 4:28:52
1367 4005 MARTIN Patrick B 369 9:36:23 4:42:42
1368 8259 LAWRENCE-PARR James C 563 9:36:26 4:29:12
1369 4406 LEGUAY Xavier C 564 9:36:28 4:35:12
1370 3354 SISTENICH Didier C 565 9:36:29 4:36:33
1371 3330 CARASSUS Bernard E 50 9:36:29 4:44:34
1372 2109 CALVET Ber E 51 9:36:31 4:35:09
1373 2118 BONFIELD Peter C 566 9:36:32 4:29:53
1374 1566 SIMION Philippe D 249 9:36:36 4:50:57
1375 2545 GUERRA Franck B 370 9:36:45 4:27:19
1376 3335 BOUCAULT Philippe C 567 9:36:46 4:18:48
1377 4666 BOUDON Emmanuel C 568 9:36:48 4:03:26
1378 8394 HAY Darrell C 569 9:37:01 4:21:20
1379 4564 PALOSSE Jean Marc C 570 9:37:07 4:36:56
1380 831 RENOULT Christian D 250 9:37:13 4:38:00
1381 3811 DONAL O’halloran C 571 9:37:13 4:29:37
1382 4013 GWYN-WILLIAMS Justin D 251 9:37:19 4:26:14
1383 6886 WYATT Stephen B 371 9:37:19 4:27:05
1384 2743 LE ROUX Dominique C 572 9:37:22 4:20:43
1385 1281 JOLIVET Loïc D 252 9:37:25 4:26:52
1386 2220 LALANNE Roland E 52 9:37:26 4:45:26
1387 4615 SEGONDS Lilian C 573 9:37:27 4:31:55
1388 4002 BEAUFILS Serge B 372 9:37:28 4:20:49
1389 8949 DOAK Adam B 373 9:37:28 4:05:20
1390 4619 AMY Jean-François C 574 9:37:33 4:32:02
1391 5023 SELLIER Laurent C 575 9:37:33 4:24:54
1392 2553 BACON Chris B 374 9:37:47 4:31:37
1393 8327 BLAMEY Brian D 253 9:37:49 4:06:10
1394 3869 HANNACHI Guillaume C 576 9:37:58 4:21:00
1395 4663 LAWSON Michael C 577 9:37:58 4:20:50
1396 9589 LUCAS-GROUSSET Herve C 578 9:38:06 4:27:39
1397 2698 BOURDA Olivier C 579 9:38:06 4:33:38
1398 3131 FERREIRA Fabio C 580 9:38:10 4:39:24
1399 4398 FERNANDEZ Jean Louis C 581 9:38:11 4:16:33
1400 5340 MCCLURE Scott C 582 9:38:15 4:14:28
1401 2796 ELGOYHEN Pierre C 583 9:38:20 4:26:34
1402 2623 DUVERGER François D 254 9:38:23 4:33:21
1403 1527 ARRUFFAT Lionel B 375 9:38:26 4:31:15
1404 5987 SCHIFKO Alexander C 584 9:38:27 4:32:31
1405 6276 OYAERT Gerald D 255 9:38:27 4:20:05
1406 9634 RAGNARSSON Birgir B 376 9:38:39 4:28:40
1407 4637 NEVILLE Worthington B 377 9:38:44 4:32:42
1408 7069 BRENNAN Gavin John A 124 9:38:45 4:20:49
1409 6625 HALL Mark B 378 9:38:51 4:19:25
1410 8166 DANIELSSON Andreas B 379 9:38:53 4:20:15
1411 1981 KHIAL Kamil B 380 9:38:59 4:40:45
1412 5069 TOULOUSE Sébastien B 381 9:39:07 4:44:11
1413 8367 FULFORD Garrath C 585 9:39:22 4:18:50
1414 3927 CORTESI Bruno C 586 9:39:34 4:34:17
1415 9543 ROCARD Pierre C 587 9:39:37 4:17:42
1416 4522 SAUNDERS David B 382 9:39:38 4:19:24
1417 910 KOSTADINOV Tchavdar E 53 9:39:40 4:48:43
1418 3333 COLE Felicity F 10 9:40:01 4:43:42
1419 2705 DENOUAL Arnaud B 383 9:40:12 4:30:30
1420 2164 DESTRIBOIS Benoit D 256 9:40:22 4:34:57
1421 2165 LESCA Michel C 588 9:40:24 4:40:54
1422 3433 GALTIÉ Jean-François D 257 9:40:25 4:37:02
1423 5387 CAQUERET Daniel E 54 9:40:26 4:36:03
1424 3281 CULLET Alain C 589 9:40:26 4:40:57
1425 4712 LOUBÈRE Vincent C 590 9:40:32 4:18:06
1426 8159 CAMBOU Philippe C 591 9:40:32 4:35:24
1427 4641 PARFOURU David C 592 9:40:37 4:42:29
1428 118 HARMAND Jerome C 593 9:40:37 4:34:55
1429 5160 MARCOEN Gerd C 594 9:40:46 4:18:17
1430 5994 DE GRAUWE Peter C 595 9:40:47 4:27:55
1431 1988 SWALES Timothy D 258 9:40:49 4:24:58
1432 1512 PINEAU Jean Paul E 55 9:40:51 4:51:36
1433 6947 FENNELLY Joseph A 125 9:40:52 4:38:33
1434 7681 IDJOUADIENE Freddy C 596 9:40:52 3:55:16
1435 1495 BARRERE Marc D 259 9:40:53 4:37:10
1436 2738 JAFFRE Pierrick C 597 9:40:54 4:12:24
1437 3507 MARTIN Patrick D 260 9:40:54 4:41:38
1438 6946 LATTIMER Nick A 126 9:40:55 4:39:02
1439 2504 RABY Gerard E 56 9:40:55 4:40:50
1440 1402 FORBES Duncan B 384 9:41:04
1441 3393 LEBOUVIER Raymond D 261 9:41:08 4:50:49
1442 7242 PAUL Bruno D 262 9:41:12 4:34:22
1443 6581 SALVI Laurent B 385 9:41:12 4:09:23
1444 5257 CULLEN Ian B 386 9:41:12 4:01:36
1445 2110 PASNON François E 57 9:41:35 4:31:00
1446 7199 NOGUES Guy E 58 9:41:36 4:39:14
1447 1586 OLIVIER Jean Pierre E 59 9:41:41 4:22:12
1448 4489 BESNARD Cyril B 387 9:41:45 4:33:04
1449 7240 WOODFORD Matthew B 388 9:41:47 4:29:40
1450 7852 THIAGO Galvao Severi B 389 9:41:55 4:12:49
1451 8997 DESPAGNET Thierry C 598 9:42:10 4:27:01
1452 4113 KALS Betty F 11 9:42:10 4:31:49
1453 880 COUDENE Sébastien B 390 9:42:14 4:32:00
1454 8847 GOMES Sérgio B 391 9:42:17 4:19:26
1455 8205 COUTINHO José C 599 9:42:20 3:53:23
1456 6968 RUTHERFOORD Paula F 12 9:42:21 4:09:04
1457 2530 REYES Christian C 600 9:42:23 4:44:16
1458 8372 ABBUD Ulisses A 127 9:42:29 4:29:36
1459 2547 PELLABOUT David C 601 9:42:30 4:27:45
1460 6390 MORTON Simon B 392 9:42:33 4:32:30
1461 7707 MALIDIN Valentin A 128 9:42:34 4:38:06
1462 2190 GOURGEON Mikael B 393 9:42:37 4:39:19
1463 6330 MONTEVERDI Franck D 263 9:42:39 4:38:17
1464 3845 HERBAIN Robert E 60 9:42:39 4:35:45
1465 952 ROLAND Gérard D 264 9:42:48 4:35:26
1466 6324 LUEDER Michael C 602 9:42:48 4:39:21
1467 5081 GENERAUD David B 394 9:42:50 4:40:49
1468 4708 CALOFER Jean-Pierre D 265 9:42:51 4:31:55
1469 2834 BINET David C 603 9:42:52 4:34:30
1470 4745 ALVAREZ FUEYO Pedro C 604 9:42:53 4:20:06
1471 3162 TAYLOR James A 129 9:42:53 4:02:34
1472 3159 JOHN Matthew B 395 9:42:54 4:02:34
1473 3161 STEVENS Daniel B 396 9:42:54 4:02:32
1474 4704 VALLÉE Didier D 266 9:42:58 4:32:50
1475 4448 CONVERSET Sébastien B 397 9:42:58 4:38:54
1476 7115 JOHNSTON Jay C 605 9:43:02 4:11:26
1477 4517 DUBE Richard B 398 9:43:03 4:20:15
1478 4608 FONTENEAU Emmanuel B 399 9:43:05 4:33:06
1479 4730 CHESTER Sue G 8 9:43:08 4:19:30
1480 8135 HICKINSON Sean C 606 9:43:12 4:27:40
1481 9491 FUNK Daniel D 267 9:43:13 4:23:11
1482 9049 TONINI Eric C 607 9:43:14 4:39:33
1483 4583 JENKINSON Peter D 268 9:43:21 4:35:14
1484 9435 PETTIT Daniel A 130 9:43:22 4:04:48
1485 8992 PICHAUD William C 608 9:43:22 4:33:41
1486 8419 GUTSELL Mark B 400 9:43:25 4:09:18
1487 3843 DELAHAYE Patrick E 61 9:43:26 4:40:30
1488 2775 GILBERT Michel E 62 9:43:30 4:49:46
1489 9635 CRONIN Kevin B 401 9:43:46 4:19:44
1490 2822 DEVERGIE Alain D 269 9:43:48 4:19:24
1491 3520 JULSING Erik C 609 9:43:58 4:19:04
1492 2211 DUNN-PARRANT Glenn C 610 9:44:04 4:34:30
1493 2168 LORMIER Pascal D 270 9:44:10 4:44:41
1494 4088 JENDAUD Frederic B 402 9:44:10 4:29:32
1495 7878 CHAMPION Russell B 403 9:44:14 4:44:00
1496 255 GUGENHEIMER Andreas C 611 9:44:14 4:35:25
1497 8507 TREWHITT Nicholas D 271 9:44:16 4:29:12
1498 8492 LETENDART Jean Guy C 612 9:44:17 4:28:43
1499 2710 MONTO Joel D 272 9:44:18 4:41:00
1500 4521 VILLAIN Xavier B 404 9:44:22 4:37:50
1501 1616 BILLINGTON Christopher B 405 9:44:25 4:33:05
1502 3472 HEBRARD Michel E 63 9:44:29 4:36:39
1503 3439 MONTEAUD Fabrice D 273 9:44:34 4:47:39
1504 4744 BORDE Alain-Joseph E 64 9:44:41 4:19:21
1505 2201 LABE Georges Yves C 613 9:44:41 4:21:11
1506 1539 LESBATS Claude E 65 9:44:48 4:44:03
1507 23 GOODWIN Vicki F 13 9:44:51 4:36:06
1508 4532 NOTLEY Sean C 614 9:44:53 4:48:19
1509 1610 ROCHE Patrick B 406 9:44:57 4:39:24
1510 1972 CAZAENTRE Joel D 274 9:45:03 4:35:55
1511 330 GRAHAM Neil D 275 9:45:03 4:20:25
1512 5307 CHURCH Paul D 276 9:45:05 4:38:21
1513 3385 MORRISON Peter C 615 9:45:07 4:39:13
1514 7535 MARTY Benoit C 616 9:45:11 4:08:47
1515 6960 WRIGHT Damian B 407 9:45:15 4:33:54
1516 6983 PIGGOT James D 277 9:45:17 4:36:44
1517 3854 EMIER Dominique E 66 9:45:33 4:36:27
1518 105 COULON Bernard D 278 9:45:39 4:55:21
1519 3343 RAVE Alain C 617 9:45:47 4:41:14
1520 8297 KETTLE David A 131 9:45:49 4:47:54
1521 1311 BOURG Jean-Marie B 408 9:45:50 4:33:56
1522 1969 CAZENAVE Didier C 618 9:45:54 4:05:57
1523 1467 JUILLAGUET Manon F 14 9:46:00 4:30:05
1524 7089 MARSHALL Giles D 279 9:46:04 4:15:32
1525 2217 LANDES Gilbert D 280 9:46:08 4:42:53
1526 5238 MASOT Henri D 281 9:46:09 4:35:32
1527 4509 TAUZIN Patrice C 619 9:46:10 4:28:06
1528 4488 MOUQUET Fabien B 409 9:46:10 4:47:40
1529 2522 JAMET David D 282 9:46:11 4:31:45
1530 8454 PARDIJON Guillaume C 620 9:46:13 4:17:01
1531 6937 HAYWARD James B 410 9:46:15 4:24:47
1532 3342 DIAZ Matthieu A 132 9:46:17 4:28:51
1533 2794 SUHAS Dominique B 411 9:46:18 4:36:50
1534 342 MELOT Benjamin A 133 9:46:20 4:41:37
1535 2580 JABRI Yacine A 134 9:46:21 4:31:11
1536 2152 WITT Wojciech B 412 9:46:22 4:05:14
1537 2801 ABADIE Henri E 67 9:46:26 4:51:57
1538 2711 DE LONGUERUE Benjamin B 413 9:46:29 4:19:04
1539 5285 EVANS Matthew C 621 9:46:31 4:32:16
1540 9429 ALAMILLOS GOMEZ Jose C 622 9:46:31 4:20:18
1541 7837 KIRI Troy B 414 9:46:33 4:38:24
1542 4578 STANHOPE Richard D 283 9:46:36 4:33:45
1543 1550 PEZO Noel E 68 9:46:49 4:39:09
1544 1502 BERSON Jacques D 284 9:46:49 4:53:48
1545 1942 BUTCHER Paul E 69 9:46:50 4:42:00
1546 1308 SALOMON Jean E 70 9:46:50 4:37:46
1547 4621 JUGIE Michel E 71 9:46:54 4:42:39
1548 7000 FLATRY Olivier C 623 9:46:56 3:55:36
1549 1484 LAVIGNOTTE Maurice E 72 9:46:58 4:20:29
1550 2655 MOCAER Didier D 285 9:46:59 4:44:13
1551 2679 LAFON Franck C 624 9:47:03 4:38:08
1552 7591 ROUSSIERE Gildas B 415 9:47:04 4:07:45
1553 1468 NORMAND David B 416 9:47:04 4:07:01
1554 3880 YVON Daniel B 417 9:47:04 4:09:17
1555 3223 MARAIS Julien B 418 9:47:04 4:09:21
1556 2613 CHATAIGNER Eric D 286 9:47:08 4:20:22
1557 3473 BOARD James D 287 9:47:10 4:41:58
1558 4471 TARDIEU Bernard E 73 9:47:14 4:38:05
1559 2611 BOISMARTEL Mathieu B 419 9:47:14 4:33:05
1560 5259 NORRISH Thomas B 420 9:47:17 4:13:02
1561 8269 READ Richard D 288 9:47:18 4:27:18
1562 2826 PORTER Martin D 289 9:47:21 4:23:56
1563 6992 CARCELES DIAZ Andres C 625 9:47:24 4:34:19
1564 2617 LALBIN Stephane C 626 9:47:25 4:28:36
1565 5841 TREVESAIGUES Daniel C 627 9:47:26 4:41:59
1566 2226 LAUGA Thierry C 628 9:47:27 4:44:49
1567 7822 O’BRIEN James B 421 9:47:29 4:26:53
1568 2041 MARTIN Rémy C 629 9:47:31 4:48:12
1569 2851 BEURY Sylvain B 422 9:47:32 4:43:32
1570 3835 MIEDEL Ricard D 290 9:47:33 4:45:10
1571 3962 BRAGUY Cyril C 630 9:47:34 4:31:33
1572 2857 DEMOULIN David B 423 9:47:34 4:07:51
1573 3838 REMAUD Olivier C 631 9:47:37 4:28:52
1574 3431 GALLO Jean-Claude D 291 9:47:38 4:49:27
1575 8836 O’REILLY Ultan B 424 9:47:39 4:19:37
1576 2823 TUNINETTI Julien B 425 9:47:46 4:21:48
1577 5957 DINEEN Shane A 135 9:47:48 4:37:49
1578 4659 MAHE Eric B 426 9:47:59 4:35:50
1579 8222 COSTA Bruno Vidigal B 427 9:48:05 4:25:35
1580 6344 PRATT Roger D 292 9:48:10 4:04:28
1581 4516 MATHIEU Guillaume A 136 9:48:16 4:43:31
1582 7871 OSBORNE Gary C 632 9:48:26 4:46:34
1583 2872 GRIFFIN Stephen C 633 9:48:30 4:19:00
1584 1938 AUDRY Jean Marc D 293 9:48:32 4:44:44
1585 2680 DUFAU Alain D 294 9:48:33 4:39:32
1586 2825 GRAHAM Jeffrey C 634 9:48:36 4:33:22
1587 6930 AUNEAU Jonathan B 428 9:48:37 4:18:18
1588 1575 SOULIER Thierry C 635 9:48:39 4:48:49
1589 1922 FOURNIER Dominique D 295 9:48:51 4:50:36
1590 3847 SMITH Geoffrey C 636 9:48:52 4:14:24
1591 9108 BUNTTING Gordon B 429 9:48:55 4:21:38
1592 3490 BOUSQUET Jean-Luc C 637 9:48:57 4:40:19
1593 4738 CAMERON Barry B 430 9:49:00 4:32:52
1594 3207 VIERNE Nicolas C 638 9:49:06 4:40:06
1595 3245 LAFFONT Bertrand A 137 9:49:06 4:33:23
1596 7809 MARTIN Simon C 639 9:49:07 4:38:43
1597 3456 CLOUZET Remy D 296 9:49:09 4:41:40
1598 6522 CRENN Samuel A 138 9:49:10 4:15:39
1599 9403 DELATTRE Eric C 640 9:49:14 4:34:31
1600 7614 COLEMAN Joseph B 431 9:49:17 4:38:19
1601 7545 GUET Patrice D 297 9:49:23 4:25:56
1602 884 VIE Thierry D 298 9:49:27 4:43:22
1603 3315 GAILLY Francis D 299 9:49:29 4:39:21
1604 777 STUDWELL David C 641 9:49:34 4:31:10
1605 102 NAVARRO Serge C 642 9:49:35 4:49:28
1606 3839 BAUKEMA Johan B 432 9:49:37 4:24:56
1607 3974 CORDONNIER Joël C 643 9:49:38 4:31:38
1608 3283 VILLACAMPA Eric B 433 9:49:38 4:42:01
1609 8391 VUONG Tu-Khanh D 300 9:49:39 4:23:08
1610 2733 DAVID Armel D 301 9:49:41 5:04:13
1611 3396 HILL Christian A 139 9:49:44 4:35:54
1612 2732 CHARBONNEAU Xavier D 302 9:49:44 5:00:08
1613 4679 SHEPHERD Alec C 644 9:49:44 4:39:00
1614 3395 BRINDLE Simon C 645 9:49:45 4:35:32
1615 9593 MAYER Raoul B 434 9:49:47 4:34:07
1616 6576 REVRANCHE Julien A 140 9:49:51 4:49:39
1617 5888 HEINTZ Bud B 435 9:49:52 4:38:43
1618 3211 DEBAR Guy D 303 9:49:53 4:34:51
1619 4510 HASLAM Mark C 646 9:49:53 4:23:56
1620 247 BOISSET Vincent B 436 9:49:59 4:30:56
1621 7583 MALIDIN Nicolas C 647 9:50:01 4:36:08
1622 2186 BUCKLEY Robert B 437 9:50:05 4:35:19
1623 9535 CHARTIER Dominique E 74 9:50:16 4:32:48
1624 8844 MELONI Gautier B 438 9:50:33 4:36:34
1625 2231 DESPLANCHES Frederic C 648 9:50:34 4:19:34
1626 8393 WESTON Peter A 141 9:50:43 4:41:55
1627 6903 MORRIS Ben B 439 9:50:44 4:32:04
1628 2135 BUCKLEY Richard C 649 9:50:50 4:34:04
1629 2018 ROSSI Mark C 650 9:50:52 4:48:30
1630 5926 LE CLAIRE Cyril A 142 9:50:53 4:08:38
1631 4749 RIBUL CONTE Fabien A 143 9:50:53 4:13:20
1632 6618 MCILROY William C 651 9:50:58 4:16:09
1633 7608 WARRILLOW John C 652 9:51:06 4:33:11
1634 3828 MARIANO RODRIGUES COSTA FILHO Roberto A 144 9:51:06 4:50:35
1635 8274 JOLLY Max B 440 9:51:07 4:12:38
1636 9468 MARQUES José C 653 9:51:14 4:36:42
1637 7812 CLARKE Kenneth D 304 9:51:15 4:38:20
1638 6587 HEARNE Julian C 654 9:51:15 4:17:41
1639 2791 HIGGINS David C 655 9:51:17 4:48:09
1640 8195 BERNARD Benoit A 145 9:51:21 4:49:27
1641 5169 AXON Paul C 656 9:51:22 4:34:46
1642 7192 BJORKMAN Hakan D 305 9:51:24 4:26:52
1643 3275 LEGRAND Jean Louis B 441 9:51:28 4:43:05
1644 4665 SCOTT Gordon D 306 9:51:29 4:38:02
1645 340 MASANA Toni C 657 9:51:37 4:38:33
1646 912 NICOLAU Alain D 307 9:51:38 5:13:17
1647 968 DERUDET Yves D 308 9:51:38 5:13:16
1648 5953 DESMOTS Hermann B 442 9:51:39 4:08:11
1649 1902 ROSSE Thierry C 658 9:51:39 5:09:59
1650 2813 SOULA Alain E 75 9:51:42 4:48:49
1651 264 CAU Jean Michel C 659 9:51:44 4:46:27
1652 5970 STEWART David B 443 9:51:44 4:48:32
1653 1532 PITOUX Christian E 76 9:51:45 4:44:04
1654 9521 WILLIAMS Ian A 146 9:51:53 4:19:39
1655 4683 ETAVARD Stephane C 660 9:51:54 4:28:17
1656 3267 MILLECAMPS Frederic C 661 9:51:55 5:01:59
1657 3486 ROGERS M Kelly D 309 9:51:56 4:34:59
1658 5207 WILLIAMSON Hugh C 662 9:52:00 4:29:21
1659 9746 CHABRILLAC Emilien A 147 9:52:00 4:28:00
1660 2101 MAUREL Dominique C 663 9:52:04 4:51:23
1661 3950 SPARREY Clinton C 664 9:52:06 4:43:40
1662 5775 CHAILLOU Bruno C 665 9:52:08 4:32:34
1663 9087 BROWN Andrew C 666 9:52:09 4:40:31
1664 9096 SOUZA Helio B 444 9:52:10 4:43:11
1665 3852 DENNIS Graham C 667 9:52:17 4:23:44
1666 2644 BRAUD Jean-Claude E 77 9:52:18 4:43:43
1667 3477 MAXWELL Edward C 668 9:52:21
1668 2750 MORTON Robert C 669 9:52:26 4:41:37
1669 4405 BERAUD Pascal D 310 9:52:29 4:44:50
1670 5088 VERGER Vincent C 670 9:52:31 4:38:14
1671 2767 ORRAY Patrick D 311 9:52:31 4:40:17
1672 5083 COSTANZO Marcel D 312 9:52:33 4:31:40
1673 2763 HOURDEBAIGT Gerard D 313 9:52:42 4:43:17
1674 4486 LEDARD Tristan A 148 9:52:43 4:33:25
1675 4441 GOMEZ Jean C 671 9:52:46 4:28:41
1676 4735 TABURET Francis E 78 9:52:50 4:26:05
1677 3209 BOUCHER Brice C 672 9:52:54 4:34:59
1678 4125 NYSVEEN Sigmund D 314 9:52:55 4:44:03
1679 7650 CARLIER Alexandre A 149 9:52:57 4:25:13
1680 1421 AUGÉ Jean Bernard C 673 9:53:04 4:56:13
1681 2046 MORONI Gianluigi C 674 9:53:04 4:43:20
1682 7065 ROSS Andrew C 675 9:53:06 4:34:52
1683 6583 PELAEZ Steve C 676 9:53:07 4:58:37
1684 6269 HADDOW David B 445 9:53:11 4:11:14
1685 4693 BOUTEMY Didier C 677 9:53:12 4:42:23
1686 3825 DE BACKER Steven B 446 9:53:13
1687 4646 BEDERE Guy D 315 9:53:13 4:34:27
1688 7123 LAMB Mark B 447 9:53:14 4:36:36
1689 1496 WHELAN Andrew A 150 9:53:14 4:24:02
1690 7767 LAROUCHE Martin D 316 9:53:15 4:21:02
1691 4408 PARKER Simon D 317 9:53:15 4:43:11
1692 246 DIDTSCH Hervé C 678 9:53:16 4:44:13
1693 6534 DE BRUIN Rob B 448 9:53:20 4:33:14
1694 9554 CHÉRON Sébastien B 449 9:53:20 4:15:13
1695 2149 GOBINAUD Thierry C 679 9:53:21 4:41:47
1696 4410 BELAIR Jean-Luc D 318 9:53:29 4:26:27
1697 7204 COCCO Mario D 319 9:53:33 4:32:35
1698 2143 GUIEM Florent B 450 9:53:33 4:29:55
1699 2028 OUDARD Andre D 320 9:53:33 4:54:23
1700 4038 MAZANA Sophie F 15 9:53:41 4:42:04
1701 8999 LUKAS Katherine G 9 9:53:48 4:42:18
1702 341 FARIA Ruben B 451 9:53:50 4:43:55
1703 8302 GORIS Philip C 680 9:53:51 4:31:21
1704 5229 GIROT Ronan C 681 9:53:56 4:33:48
1705 4407 DE SANTOS Jean Michel C 682 9:54:01 4:45:25
1706 8141 LAWLESS Brendan B 452 9:54:16 4:26:54
1707 1611 TOPHAM Fred D 321 9:54:19 4:10:34
1708 8250 CIEUTAT Christophe B 453 9:54:22 4:23:57
1709 1533 METAIRON Didier D 322 9:54:30 4:56:25
1710 5925 LE DREAN Thierry C 683 9:54:32 4:30:39
1711 5875 CASSET Andre E 79 9:54:46 4:33:49
1712 9127 LITHERLAND John C 684 9:54:47 4:29:27
1713 2793 OXOBY Sébastien B 454 9:54:52 4:43:56
1714 9093 VERSLUYS Pepijn A 151 9:54:52 4:30:26
1715 7851 GARCIA Olivier D 323 9:54:53 4:25:36
1716 4006 MARCAR Scott C 685 9:54:54 4:30:49
1717 3821 TAYLOR Luke A 152 9:54:56 4:23:16
1718 2122 LE COZ Michel C 686 9:54:57 4:40:37
1719 2776 HALÇAREN Christophe C 687 9:55:00 4:48:17
1720 9698 FORMAN Eon C 688 9:55:04 4:32:18
1721 2516 CHARBONNIER Robert D 324 9:55:07 4:26:52
1722 8294 SMITH Robert B 455 9:55:07 4:34:34
1723 4505 BRIGGS Graham C 689 9:55:08 4:33:57
1724 4731 PARUPS Lauris B 456 9:55:08 4:17:23
1725 6270 PARIS Christophe C 690 9:55:10 4:39:12
1726 2645 GREENWOOD Paul C 691 9:55:14
1727 3139 PIZANT Jacques E 80 9:55:14 4:39:28
1728 245 LARRUE Jean Pierre E 81 9:55:18 4:51:02
1729 4585 YAMASAKI Shinichi D 325 9:55:24
1730 1424 LAPIERRE Jean-Fred C 692 9:55:27 4:36:51
1731 5842 MAUGER Lionel B 457 9:55:30 4:36:15
1732 4138 LABADIE Mathieu C 693 9:55:31 4:32:23
1733 2067 SIONNET Christian E 82 9:55:32 4:44:45
1734 3192 LEGENDRE Marc D 326 9:55:32 4:24:52
1735 2649 FAUQUEMBERGUE Antoine B 458 9:55:42 4:00:00
1736 7177 ARMSHAW James A 153 9:55:45 4:12:49
1737 280 VIRAC Christian D 327 9:55:45 4:50:32
1738 7048 DAYMOND Alex C 694 9:55:55 4:42:48
1739 6948 ANSELL Justin C 695 9:55:59 4:00:58
1740 6925 WELLER David C 696 9:56:00 4:26:32
1741 9730 PASDELOUP Paul D 328 9:56:01 4:48:49
1742 6959 HASLER Ryan A 154 9:56:05 4:28:14
1743 6308 GACHE Philippe D 329 9:56:07 4:30:32
1744 6940 LABEDE Jérémy A 155 9:56:15 4:25:44
1745 343 FABRE Henry-Claude C 697 9:56:17 5:10:00
1746 890 VERHAEGHE Yoann B 459 9:56:25 4:53:12
1747 5326 MEAUD Dominique D 330 9:56:28 4:21:00
1748 1911 GUNN Jason C 698 9:56:31 4:36:43
1749 3890 DORNON Jean-Marie C 699 9:56:36 4:46:31
1750 103 LAFORGE Frederic C 700 9:56:37 5:04:04
1751 6403 PAINEAU Pascal C 701 9:56:51 4:28:32
1752 1921 GARCIA-TESSON Eric C 702 9:57:02 4:56:01
1753 4617 FARBOS Bernard D 331 9:57:03 4:56:21
1754 5248 ODDY Simon C 703 9:57:05 4:47:07
1755 5104 GOODFELLOW Nicholas B 460 9:57:11 4:27:00
1756 3387 BOUCHET Dominique E 83 9:57:20 4:49:12
1757 9381 STEEL Andrew B 461 9:57:22
1758 2814 BALARD Gilles E 84 9:57:22 4:43:53
1759 8973 HOFFMANN Nils D 332 9:57:23 4:39:01
1760 8435 CRICHTON Barry B 462 9:57:23 4:30:30
1761 3300 RALSTON Tim B 463 9:57:29 4:32:10
1762 6963 CASEY Karie G 10 9:57:31 4:11:08
1763 2178 LEGOUHY Jean-Marie D 333 9:57:32 4:34:07
1764 4450 CHASTEL Alain E 85 9:57:36 4:42:16
1765 4722 VAN HOVE Joris C 704 9:57:40 4:34:29
1766 4425 COMBALBERT Philippe C 705 9:57:43 4:16:42
1767 1361 REDSHAW Simon C 706 9:57:43 4:53:36
1768 2207 RONDEAU Christian C 707 9:57:45 4:54:14
1769 6884 JACKSON Clifford E 86 9:57:54 4:29:49
1770 2662 ABUHAIDAR Walid B 464 9:58:03 4:36:20
1771 8849 COUTURIER Julien B 465 9:58:03 4:07:33
1772 8305 HEFFERNAN Keith B 466 9:58:11 4:31:55
1773 7625 DOLAN Michael A 156 9:58:16 4:33:26
1774 3141 CHARTON Bruno C 708 9:58:30 5:00:30
1775 1427 THOMPSON Paul D 334 9:58:32 4:51:27
1776 2536 EDMONDS Phillip C 709 9:58:32 4:53:52
1777 9112 JACOBS Daniel A 157 9:58:36
1778 5880 HARTLEY Robert D 335 9:58:38 4:41:50
1779 7072 HERRICK Mark B 467 9:58:38 4:32:13
1780 2520 RIVALAIN Didier D 336 9:58:40 4:42:08
1781 4518 SMITH Mark C 710 9:58:42 4:39:12
1782 9015 DOWNEY Andrew A 158 9:58:46 4:20:51
1783 9019 PERSSON Henrik A 159 9:58:47 4:20:07
1784 1961 GRÉAU Claude E 87 9:58:47 5:05:12
1785 5120 BRAXTON Nicholas C 711 9:58:58 4:49:18
1786 3214 VANDEWALLE Eric C 712 9:59:01 4:45:30
1787 3318 JULIAN Jean Michel D 337 9:59:04 4:51:12
1788 4462 FOULKES Iain C 713 9:59:10 4:45:56
1789 7750 FERNANDEZ Frederic B 468 9:59:16 4:15:38
1790 5206 MARCKWARDT Christian B 469 9:59:31 4:28:38
1791 7638 FRÉSIL Fabrice B 470 9:59:34 4:38:55
1792 2508 DEHEPPE René E 88 9:59:34 4:48:30
1793 1984 CHAUVELIERE Pierre E 89 9:59:42 4:53:34
1794 950 DEBORD Jean Pierre E 90 9:59:45 4:40:40
1795 4552 BOUDÉ Christian E 91 9:59:50 4:48:33
1796 4707 CAMBOUNET Jean-Jacques D 338 9:59:53 5:00:03
1797 8181 TAYLOR Adam A 160 9:59:54 4:19:59
1798 3323 PETIT Cyril B 471 10:00:05 4:37:44
1799 8161 KELLY Robert C 714 10:00:11 4:42:30
1800 5900 FUNNELL David C 715 10:00:13 4:10:06
1801 8366 WILLIAMS Deufryn D 339 10:00:15 4:47:16
1802 2844 CERCIART Eric B 472 10:00:17 4:31:51
1803 3370 WADE Jordan A 161 10:00:18 4:24:55
1804 2219 GENCO Marc D 340 10:00:19 4:45:23
1805 4677 VERVOORT Antoine B 473 10:00:20 4:53:03
1806 5024 LEBOULANGER Patrick E 92 10:00:22 4:52:45
1807 2117 LAUDREN Jean-Stéphane C 716 10:00:26 5:01:54
1808 8256 GAUGHAN Adrian D 341 10:00:34 4:28:59
1809 5899 ASHELFORD Tim C 717 10:00:35 4:30:20
1810 5870 BATES-BROWNSWORD Darryl C 718 10:00:37 4:25:25
1811 6271 GABEZ Herve C 719 10:00:39 4:42:33
1812 7744 ZEDNIK Carlos B 474 10:00:46 4:21:02
1813 8812 MURAT Jean Marc C 720 10:00:52 4:32:14
1814 7703 BLANCHARD Maxence B 475 10:01:00 4:38:59
1815 8871 FISER Lukas B 476 10:01:04 4:28:42
1816 2828 BAYNE Mark B 477 10:01:04 4:06:41
1817 3963 PARRO Jean-Philippe C 721 10:01:06 4:50:19
1818 2513 BOUCHER Keevin B 478 10:01:22 4:41:00
1819 4603 GUILHOU Jean Marc C 722 10:01:33
1820 7056 NEUHOFF Simon B 479 10:01:34
1821 9588 SANDERSON David C 723 10:01:35 4:25:58
1822 4137 LEADER Tom D 342 10:01:41
1823 4614 VIGUIER Michel D 343 10:01:50 4:36:48
1824 5729 GREVE Leo C 724 10:01:53 4:41:30
1825 3147 CASSOULONG Sebastien C 725 10:02:06 4:54:46
1826 7532 CHARRON François B 480 10:02:09 4:30:54
1827 7079 OTAKE Kiyoshi C 726 10:02:10 4:28:31
1828 954 THIBOUT Michel E 93 10:02:11 4:57:03
1829 7787 HAYNES Duncan C 727 10:02:17 4:32:44
1830 2677 YVERGNAUX Florent D 344 10:02:17 5:05:57
1831 1964 BONDERGAARD Mads C 728 10:02:24 4:54:53
1832 3481 DE LA TORRE Thierry B 481 10:02:26 4:49:32
1833 2064 TILLETT Mark B 482 10:02:26 5:03:28
1834 241 MAGNE Gerard D 345 10:02:33 4:32:15
1835 5330 BENOIT Frederic C 729 10:02:36 4:48:37
1836 7662 LUNT Richard B 483 10:02:37 4:33:00
1837 4060 TRAN-DANG Eric C 730 10:02:39 4:47:42
1838 4086 BETTERIDGE Daniel A 162 10:02:40 4:39:03
1839 2631 BORDES Paul C 731 10:02:43 4:30:41
1840 4064 HENRY Patrick A 163 10:02:43 4:13:11
1841 3286 BEATTIE Keith C 732 10:02:44 4:47:21
1842 303 ESTEYRIE Jean Pierre D 346 10:02:50 4:46:58
1843 6985 PIQUER Christian D 347 10:02:56 4:35:30
1844 8514 CICIGOI Massimo B 484 10:02:59 4:04:40
1845 8224 SHRIMPTON Neill C 733 10:03:07 4:57:17
1846 2661 NICOLAI Michael D 348 10:03:11 4:34:20
1847 9602 TIFFIN Phillip C 734 10:03:15 4:22:40
1848 1957 GUYOT Nicolas B 485 10:03:16 4:32:39
1849 3392 MYKURA Alistair A 164 10:03:19 4:30:46
1850 4748 MIELE Olivier B 486 10:03:28 4:29:46
1851 5649 PANIEZ David C 735 10:03:34 5:02:26
1852 6264 FASTRE Alain C 736 10:03:41 4:46:28
1853 3485 JAUSSI Thierry C 737 10:03:46 4:44:33
1854 9684 VILLET Alexandre B 487 10:03:52 4:28:56
1855 7095 OLDROYD Keith D 349 10:03:56 4:44:23
1856 3324 BONTE Éric D 350 10:03:59 4:38:52
1857 3341 WILLIAMS Lindsay C 738 10:04:05 5:03:30
1858 939 ABADIE Paul E 94 10:04:07 4:35:42
1859 4487 BOSSARD Fabrice C 739 10:04:09 4:31:22
1860 8775 ADEMA Lucien D 351 10:04:14 4:52:12
1861 5217 SINTON Andrew C 740 10:04:24 4:08:04
1862 9719 WHITE Kevin C 741 10:04:27 4:46:57
1863 4381 BERGERON Lionel C 742 10:04:29 4:12:10
1864 5070 LORY Pascal C 743 10:04:34 4:43:08
1865 6325 OSBORNE Simon B 488 10:04:38 4:36:01
1866 9419 BAYLISS Paul C 744 10:04:38 4:42:16
1867 9477 GUIBOUIN Tony B 489 10:04:43 4:36:29
1868 4568 LE JEUNE Christophe C 745 10:04:51 4:14:40
1869 7711 PEMBERTON Matthew A 165 10:04:54 4:24:19
1870 9596 BROSSIER Jeanick C 746 10:04:56 4:48:47
1871 5354 JORGE Nevado Barbero A 166 10:04:58 4:25:51
1872 8948 GORKA Osua Sanchez B 490 10:04:58 4:25:51
1873 4601 HORGUE Dominique D 352 10:05:04 4:47:04
1874 5367 GUIRAUD Laurent C 747 10:05:05 5:01:04
1875 2014 SUCAUD Jean Claude D 353 10:05:10 4:59:04
1876 4083 CASTET Philippe C 748 10:05:10 4:44:39
1877 3914 SPARKS Paul C 749 10:05:10 4:36:18
1878 5280 DECUYPER Marc D 354 10:05:16 4:39:09
1879 9626 BRIOT Olivier B 491 10:05:16 4:37:16
1880 7679 LERAT Sylvain B 492 10:05:16 4:37:20
1881 3947 VRILLAUD Stephane B 493 10:05:20 4:48:47
1882 2859 SLIMANI Karim C 750 10:05:22 4:55:21
1883 2036 BRADSHAW R Ian D 355 10:05:29 4:29:46
1884 5980 TOURATON Fabrice C 751 10:05:31 4:41:55
1885 6932 BABEN François B 494 10:05:33 4:46:06
1886 8272 PICKARD Colin C 752 10:05:39 4:26:39
1887 2543 ASSELIN Joffrey A 167 10:05:47 4:29:21
1888 3795 POUPINET Benoit C 753 10:05:47 4:48:26
1889 2554 CUSSAC Thierry C 754 10:05:47 4:50:19
1890 9021 DALTON Patrick B 495 10:05:49 4:38:46
1891 1383 BARBIER Philippe D 356 10:05:57 4:32:17
1892 9648 BARBIER Thibaut A 168 10:05:58 4:28:38
1893 2581 BABIN Olivier B 496 10:06:07 4:36:21
1894 2055 MOÏZO Sebastien C 755 10:06:08 4:47:55
1895 8781 COUADEAU JeanChristophe C 756 10:06:12 4:57:50
1896 3265 DE ZOTTI Guy D 357 10:06:13 5:05:36
1897 2233 DOLIE Michel C 757 10:06:14 4:45:58
1898 1399 RIBALLET Xavier B 497 10:06:15 5:07:43
1899 1552 DEMET Alexandre B 498 10:06:19 4:27:10
1900 9058 JARROUSSE Hervé C 758 10:06:23 4:25:08
1901 4133 EGLON Richard D 358 10:06:24 4:47:46
1902 1924 BONNEAU Frederic B 499 10:06:27 4:49:04
1903 5045 TAYAC Jean Christophe C 759 10:06:28 4:50:02
1904 6322 SINGLETON Mark B 500 10:06:30 4:38:49
1905 6526 TURNER Ian E 95 10:06:32 4:59:08
1906 9459 YARNALL David C 760 10:06:34 4:31:11
1907 1990 COUEDRO Pascal D 359 10:06:35 5:04:55
1908 6590 MORTON Jeremy C 761 10:06:36 4:29:39
1909 9585 BOYER Frédéric B 501 10:06:43 4:25:29
1910 4434 RICHARDS Michael C 762 10:06:50 4:32:44
1911 4690 CAVAILLE Fabien B 502 10:06:52 4:38:19
1912 5654 KERNEN Andre C 763 10:06:58 4:45:53
1913 8787 LECLERE Stéphane C 764 10:06:59 4:37:51
1914 8148 ABADIE Florian A 169 10:06:59 4:46:44
1915 9068 DE SEVERAC Mathieu A 170 10:06:59 4:48:32
1916 5115 DURIEUX Charles-André C 765 10:06:59 4:37:54
1917 1503 SUTTON James B 503 10:07:00 4:10:36
1918 3425 FAUTRAT Philippe C 766 10:07:01 4:17:03
1919 2084 TRIMOULET Dominique C 767 10:07:07 5:06:24
1920 3970 SINDZINGRE François D 360 10:07:08 4:56:21
1921 4443 PAGNOUX Thierry C 768 10:07:08 4:35:25
1922 3918 MACHEBOEUF Francis E 96 10:07:10 5:02:38
1923 1578 PUJO Gilles C 769 10:07:17 4:54:58
1924 4426 SIGRIST Pascal C 770 10:07:18 4:40:54
1925 4599 TACK Alexander C 771 10:07:27 4:33:27
1926 5312 GIRALDOU Bernard D 361 10:07:33 4:27:09
1927 2659 MAILLOT Emmanuel C 772 10:07:36 3:55:50
1928 5702 BAUS Lionel B 504 10:07:41 4:26:29
1929 5920 MARC Vignes D 362 10:07:41 4:52:33
1930 5682 BELLIN Thierry C 773 10:07:42 4:43:02
1931 2870 BOARDMAN Jeremy C 774 10:07:47 4:39:20
1932 3360 SMITH Andrew C 775 10:07:49 4:22:08
1933 5361 MUJIKA IMAZ Aitor C 776 10:07:54 3:53:12
1934 5362 VILLA GARMENDIA Albaro B 505 10:07:55 4:30:33
1935 7558 AZEMA Daniel D 363 10:07:59 4:38:50
1936 3885 SERRANO Christian D 364 10:08:09
1937 5129 SAINT-LARY Jean-Claude D 365 10:08:16 5:13:26
1938 8991 WEEKS Jonathan D 366 10:08:21 4:44:56
1939 3129 FOUGERAY Philippe D 367 10:08:21 4:48:46
1940 7683 CARRERE Christophe C 777 10:08:22 4:44:46
1941 7085 FUKUNAGA Tatsuya B 506 10:08:22 3:51:03
1942 1538 RUFF Stephane C 778 10:08:28 4:46:27
1943 3849 SEAL Jacqui G 11 10:08:29 4:39:20
1944 4136 BOIDRON Jean-René C 779 10:08:37 4:44:39
1945 2673 LAUDOYER Vincent D 368 10:08:38 4:45:21
1946 2170 GOUYA Noel D 369 10:08:44 4:14:32
1947 4513 DAYRIES Marc C 780 10:08:45 4:44:06
1948 3180 TUDURI Jacques D 370 10:08:47 5:01:49
1949 7563 LANDREAU Joel C 781 10:08:48 4:23:15
1950 5859 PEEL Darrell C 782 10:08:58 4:37:09
1951 8258 TUCKER David C 783 10:09:05 4:48:35
1952 3303 LAFOURCADE Jean C 784 10:09:07 4:55:14
1953 6901 DAVIS John D 371 10:09:10 4:33:47
1954 1459 GONCALVES Reginaldo C 785 10:09:11
1955 8320 FURNISS David D 372 10:09:18 4:29:27
1956 1480 TÖNS Sylvia G 12 10:09:23 4:24:32
1957 8426 LAYTON Matthew B 507 10:09:29 4:41:04
1958 5946 CAVARD Ghislain B 508 10:09:32 4:26:10
1959 748 GOEMARE Michel D 373 10:09:37 4:51:26
1960 4536 LOGÉ Eric C 786 10:09:39 4:31:59
1961 9016 CARRE Philippe C 787 10:09:45 4:41:13
1962 3449 OWEN Thomas B 509 10:09:46 4:36:58
1963 2173 MURAT Jacques E 97 10:09:46 4:46:38
1964 3384 BEECH Nicholas C 788 10:09:49 5:08:17
1965 3750 PEGOURIE Jean-Michel D 374 10:09:51 4:43:34
1966 6444 FERRAND Olivier A 171 10:09:56 4:42:05
1967 4495 DA ROS Dany G 13 10:09:57 5:03:06
1968 6284 SANCHEZ Frederic B 510 10:09:57 4:56:42
1969 1510 NICOLET Alexandre C 789 10:10:01 5:04:36
1970 3519 SCHEFFER Philippe D 375 10:10:09
1971 3271 LIEGEOIS Thierry C 790 10:10:11
1972 8249 CATER Daniel A 172 10:10:14 4:59:18
1973 2585 TORDESILLAS Eric C 791 10:10:14 4:38:28
1974 3480 BUISSON Daniel D 376 10:10:15
1975 7790 ROBINSON Paul C 792 10:10:19 4:42:49
1976 8822 RUBENS Eric C 793 10:10:19 4:38:07
1977 3173 GROUAZEL Jean-Pierre C 794 10:10:27 4:35:58
1978 5103 COEUGNIET Jérôme B 511 10:10:29 4:47:22
1979 5080 MCCARTHY Iain C 795 10:10:39 4:41:00
1980 3899 BERNARD Jacques E 98 10:10:48 4:49:52
1981 8496 SMITH Andrew B 512 10:10:52 5:01:52
1982 2665 SAVAJOLS Philippe C 796 10:10:54 4:54:53
1983 5343 HELOU Gilles D 377 10:10:59 4:54:53
1984 5992 BROWN Stuart D 378 10:11:04 4:53:21
1985 7597 POMMIES Patrick D 379 10:11:15 4:51:42
1986 1342 JON Osborn B 513 10:11:16 4:11:32
1987 2502 REQUIER Hervé E 99 10:11:19 4:58:07
1988 6931 WALPOLE Andrew B 514 10:11:27 4:17:03
1989 8978 HAMELIN Nicolas B 515 10:11:27 4:43:23
1990 6488 MOUNIER Denis D 380 10:11:33 4:54:55
1991 4424 HAWES Andrew B 516 10:11:37 4:50:11
1992 3823 RIBAS William C 797 10:11:45 4:51:09
1993 8813 WORRALL Timothy C 798 10:11:46 4:41:55
1994 9025 BURKE David D 381 10:11:59 4:27:39
1995 8466 DE BROUWER J Pierre C 799 10:12:01 4:44:06
1996 5922 MARKHAM Timothy C 800 10:12:05 4:56:02
1997 1572 QUESNEL Christian D 382 10:12:12 4:49:20
1998 9584 FABREGAT Xavier C 801 10:12:13 4:31:33
1999 8407 DUCK Stephen D 383 10:12:18 4:28:05
2000 3931 HURAUX Serge C 802 10:12:22 4:34:32

Voir suite -> Etape du Tour 2 - 2012 : du 2001ème au 3000ème

إلى الأعلى 









إلى الأعلى  
 المجال الخاص   حقوق التألالنشر - جميع الحقوق محفوظة: اضغط هنا قراءة